Regional Weather Roundup
Issued by NWS Memphis, TN

Home | Current Version | Previous Version | Text Only | Print | Product List | Glossary On
Versions: 1 2 3 4 5 6 7 8 9 10 11 12 13 14 15 16 17 18 19 20 21 22 23 24 25 26 27 28 29 30 31 32 33 34 35 36 37 38 39 40 41 42 43 44 45 46 47 48 49 50
000
ASUS44 KMEG 050710
RWRMEG
MEMPHIS CWA HOURLY WEATHER ROUNDUP
NATIONAL WEATHER SERVICE MEMPHIS TN
100 AM CST THU MAR 05 2015

...WEST TENNESSEE...

CITY           SKY/WX    TMP DP  RH WIND       PRES   REMARKS
MEMPHIS INTL   LGTSLEET  24  20  84 N16G22    30.24R FOG     WCI  11
NWS MEMPHIS      N/A     23 N/A N/A MISG        N/A
JACKSON        LGT SNOW  22  18  85 NE22      30.20S FOG     WCI   6
LEXINGTON      CLOUDY    21  19  93 N13       30.16R WCI   9
SAVANNAH       CLOUDY    27  27 100 N16       30.14R WCI  14
DYERSBURG      CLOUDY    19   7  58 N16G30    30.29S WCI   5
UNION CITY     CLOUDY    18  18 100 N14       30.26F WCI   4
PARIS          CLOUDY    16  14  93 N10       30.24S WCI   3


...EASTERN ARKANSAS...

CITY           SKY/WX    TMP DP  RH WIND       PRES   REMARKS
JONESBORO      FOG       19  17  92 N15G25    30.33R VSB 3/4 WCI   5
WEST MEMPHIS   MIX PCPN  22  20  92 N22G32    30.26R FOG     WCI   6
BATESVILLE     CLOUDY    19  16  86 N8        30.36R WCI   9
NEWPORT        LGT SNOW  21  19  92 N22       30.35R FOG     WCI   5
WALNUT RIDGE   CLOUDY    19  16  86 N13       30.35R VSB 3/4 WCI   7
BLYTHEVILLE    FOG       20  18  92 N29       30.31R VSB 1/2 WCI   1
SEARCY         LGT SNOW  21  19  92 N16G22    30.34R VSB 1   WCI   7
STUTTGART      CLOUDY    25  18  74 N31       30.26F WCI   8
PINE BLUFF     MIX PCPN  25  22  88 N28G37    30.25R FOG     WCI   9
MONTICELLO     MIX PCPN  29  26  89 NE13G22   30.16S FOG     WCI  19


...NORTH MISSISSIPPI...

CITY           SKY/WX    TMP DP  RH WIND       PRES   REMARKS
TUPELO         CLOUDY    34  30  85 NE18      30.09R WCI  23
OXFORD         CLOUDY    27  25  93 N12G30    30.18R FOG     WCI  16
OLIVE BRANCH   CLOUDY    23  23 100 CALM      30.19S VSB 1
TUNICA         LGT SNOW  27  23  86 N12       30.22R WCI  16
CLARKSDALE       N/A     27  27 100 CALM      30.19F
CORINTH        MIX PCPN  30  27  86 N16G30    30.13R WCI  19
GREENWOOD      CLOUDY    33  31  92 N13G21    30.10S FOG     WCI  24
COLUMBUS       MIX PCPN  37  36  93 N10       30.04F WCI  30
STARKVILLE     HVY RAIN  36  34  93 N9        30.05F WCI  29
GOLDEN TRIANGL CLOUDY    37  34  87 N14G22    30.02S WCI  29


...SOUTHEAST MISSOURI...

CITY           SKY/WX    TMP DP  RH WIND       PRES   REMARKS
WEST PLAINS    CLOUDY    20   7  57 N9        30.32R WCI   9
POPLAR BLUFF   CLOUDY    22   8  55 N15       30.33S WCI   9
CAPE GIRARDEAU CLOUDY    21  11  65 N14       30.34R WCI   8


...NORTHWEST ALABAMA...

CITY           SKY/WX    TMP DP  RH WIND       PRES   REMARKS
MUSCLE SHOALS  RAIN      34  30  86 N9G17     30.08R FOG     WCI  26


...MIDDLE TENNESSEE...

CITY           SKY/WX    TMP DP  RH WIND       PRES   REMARKS
NASHVILLE      FRZ DRZL  25  23  92 N13       30.15F WCI  14
CLARKSVILLE    LGT SNOW  20  17  88 N21       30.24R VSB 3/4 WCI   4
COLUMBIA       CLOUDY   N/A N/A N/A N8        30.12R


...WESTERN KENTUCKY...

CITY           SKY/WX    TMP DP  RH WIND       PRES   REMARKS
PADUCAH        FOG       18  14  84 NE16G28   30.30S VSB 3/4 WCI   3
FORT CAMPBELL  LGT SNOW  19  16  88 N13       30.24R FOG     WCI   6


...CENTRAL ARKANSAS...

CITY           SKY/WX    TMP DP  RH WIND       PRES   REMARKS
LITTLE ROCK    HVY SNOW  23  19  85 N18G28    30.32S VSB 1/4 WCI   9


SKY/WX REPORTED AS FAIR MEANS FEW OR NO CLOUDS BELOW
12 THOUSAND FEET.




USA.gov is the U.S. government's official web portal to all federal, state and local government web resources and services.